GW4152 Weather Reports


time (UTC)temp
C
wind
direction
speed
KPH
gust
KPH
rain 1hr
cm
rain 24hr
cm
rain mn
cm
humidity
%
barometer
mb
20260507134541 7 106 0.0 9.7 0.00 0.03 0.00 71 1011.7
20260507134020 6 106 3.2 9.7 0.00 0.03 0.00 71 1011.8
20260507133521 6 111 1.6 6.4 0.00 0.03 0.00 71 1011.8
20260507133046 6 111 1.6 11.3 0.00 0.03 0.00 70 1011.8
20260507132519 6 111 4.8 11.3 0.00 0.03 0.00 70 1011.8
20260507132020 6 0 3.2 6.4 0.00 0.03 0.00 76 1011.9
20260507131540 5 92 1.6 4.8 0.00 0.03 0.00 76 1011.8
20260507131024 5 90 3.2 4.8 0.00 0.03 0.00 77 1011.9
20260507130524 5 90 1.6 4.8 0.00 0.03 0.00 80 1011.9
20260507130041 5 90 0.0 6.4 0.00 0.03 0.00 81 1012.0
20260507125527 4 90 1.6 8.0 0.00 0.10 0.00 81 1012.1
20260507125024 4 80 3.2 8.0 0.00 0.10 0.00 84 1012.0
20260507124540 4 11 3.2 4.8 0.00 0.10 0.00 87 1012.1
20260507124024 4 9 1.6 3.2 0.00 0.10 0.00 87 1012.1
20260507123523 3 9 1.6 8.0 0.00 0.10 0.00 89 1012.3
20260507123043 3 9 4.8 6.4 0.00 0.10 0.00 91 1012.3
20260507122522 3 352 0.0 4.8 0.00 0.10 0.00 94 1012.4
20260507122022 3 313 1.6 4.8 0.00 0.10 0.00 94 1012.4
20260507121541 3 0 0.0 3.2 0.00 0.10 0.00 95 1012.5
20260507121022 3 323 0.0 4.8 0.00 0.10 0.00 95 1012.5
20260507120523 3 347 1.6 6.4 0.00 0.10 0.00 95 1012.5
20260507120037 3 351 3.2 6.4 0.00 0.10 0.00 95 1012.4
20260507115524 4 0 0.0 0.0 0.00 0.18 0.00 96 1012.5
20260507115024 4 0 0.0 0.0 0.00 0.18 0.00 95 1012.4
20260507114555 4 0 0.0 0.0 0.00 0.18 0.00 96 1012.5
20260507114023 4 0 0.0 0.0 0.00 0.18 0.00 96 1012.4
20260507113520 4 0 0.0 0.0 0.00 0.18 0.00 96 1012.4
20260507113100 4 0 0.0 0.0 0.00 0.18 0.00 96 1012.4
20260507112520 3 0 0.0 0.0 0.00 0.18 0.00 96 1012.1
20260507112021 3 0 0.0 0.0 0.00 0.18 0.00 96 1011.9
20260507111542 3 0 0.0 0.0 0.00 0.18 0.00 96 1011.8
20260507111022 3 0 0.0 0.0 0.00 0.18 0.00 96 1011.6
20260507110523 3 0 0.0 0.0 0.00 0.18 0.00 96 1011.7
20260507110043 3 0 0.0 0.0 0.00 0.18 0.00 96 1011.6
20260507105522 3 0 0.0 0.0 0.00 0.33 0.00 96 1011.6
20260507105021 3 0 0.0 0.0 0.00 0.33 0.00 96 1011.6
20260507104543 3 0 0.0 0.0 0.00 0.33 0.00 96 1011.6
20260507104022 3 0 0.0 0.0 0.00 0.33 0.00 96 1011.7
20260507103524 3 0 0.0 0.0 0.00 0.33 0.00 96 1011.6
20260507103045 3 0 0.0 0.0 0.00 0.33 0.00 96 1011.7
20260507102521 2 0 0.0 0.0 0.00 0.33 0.00 96 1011.6
20260507102021 2 0 0.0 0.0 0.00 0.33 0.00 96 1011.6
20260507101537 2 0 0.0 0.0 0.00 0.33 0.00 96 1011.5
20260507101023 2 0 0.0 0.0 0.00 0.33 0.00 95 1011.7
20260507100520 2 0 0.0 0.0 0.00 0.33 0.00 95 1011.6
20260507100037 2 0 0.0 0.0 0.00 0.33 0.00 96 1011.5
20260507095521 2 0 0.0 0.0 0.00 0.53 0.00 95 1011.6
20260507095024 2 0 0.0 0.0 0.00 0.53 0.00 95 1011.5
20260507094538 2 0 0.0 0.0 0.00 0.53 0.00 95 1011.4
20260507094020 2 0 0.0 0.0 0.00 0.53 0.00 95 1011.4
20260507093520 2 0 0.0 0.0 0.00 0.53 0.00 95 1011.3
20260507093037 2 0 0.0 0.0 0.00 0.53 0.00 95 1011.3
20260507092520 2 0 0.0 0.0 0.00 0.53 0.00 94 1011.3
20260507092021 2 0 0.0 0.0 0.00 0.53 0.00 95 1011.3
20260507091542 2 0 0.0 0.0 0.00 0.53 0.00 95 1011.3
20260507091021 2 0 0.0 0.0 0.00 0.53 0.00 95 1011.4
20260507090521 2 0 0.0 0.0 0.00 0.53 0.00 95 1011.5
20260507090038 2 0 0.0 0.0 0.00 0.53 0.00 95 1011.5
20260507085521 2 0 0.0 0.0 0.00 0.69 0.00 95 1011.4
20260507085022 1 0 0.0 0.0 0.00 0.69 0.00 95 1011.4
20260507084544 1 0 0.0 0.0 0.00 0.69 0.00 95 1011.4
20260507084020 1 0 0.0 0.0 0.00 0.69 0.00 95 1011.3
20260507083521 1 0 0.0 0.0 0.00 0.69 0.00 94 1011.4
20260507083037 1 0 0.0 0.0 0.00 0.69 0.00 94 1011.3
20260507082521 1 0 0.0 0.0 0.00 0.69 0.00 94 1011.3
20260507082020 2 0 0.0 0.0 0.00 0.69 0.00 94 1011.2
20260507081541 2 0 0.0 0.0 0.00 0.69 0.00 94 1011.3
20260507081020 2 0 0.0 0.0 0.00 0.69 0.00 94 1011.3
20260507080521 2 0 0.0 0.0 0.00 0.69 0.00 94 1011.4
20260507080033 2 0 0.0 0.0 0.00 0.69 0.00 94 1011.3
20260507075520 2 0 0.0 0.0 0.00 0.84 0.00 94 1011.3
20260507075021 2 0 0.0 0.0 0.00 0.84 0.00 94 1011.2
20260507074545 2 0 0.0 0.0 0.00 0.84 0.00 94 1011.1
20260507074020 2 0 0.0 0.0 0.00 0.84 0.00 94 1011.1
20260507073521 2 0 0.0 0.0 0.00 0.84 0.00 94 1011.1
20260507073036 2 0 0.0 0.0 0.00 0.84 0.00 94 1011.1
20260507072524 2 0 0.0 0.0 0.00 0.84 0.00 94 1011.2
20260507072020 2 0 0.0 0.0 0.00 0.84 0.00 94 1011.3
20260507071537 3 0 0.0 0.0 0.00 0.84 0.00 94 1011.2
20260507071020 3 0 0.0 0.0 0.00 0.84 0.00 94 1011.1
20260507070520 3 0 0.0 0.0 0.00 0.84 0.00 94 1011.2
20260507070039 3 0 0.0 0.0 0.00 0.84 0.00 93 1011.4
20260507065519 3 0 0.0 0.0 0.00 1.04 0.00 94 1011.5
20260507065019 3 0 0.0 0.0 0.00 1.04 0.00 94 1011.6
20260507064539 3 0 0.0 0.0 0.00 1.04 0.00 93 1011.6
20260507064021 3 0 0.0 0.0 0.00 1.04 0.00 93 1011.6
20260507063521 3 0 0.0 0.0 0.00 1.04 0.00 93 1011.6
20260507063042 4 0 0.0 0.0 0.00 1.04 0.00 94 1011.5
20260507062521 4 0 0.0 0.0 0.00 1.04 0.00 94 1011.6
20260507062020 4 0 0.0 0.0 0.00 1.04 0.00 94 1011.6
20260507061539 4 0 0.0 0.0 0.00 1.04 0.00 93 1011.6
20260507061023 4 0 0.0 0.0 0.00 1.04 0.00 94 1011.6
20260507060521 4 0 0.0 0.0 0.00 1.04 0.00 94 1011.5
20260507060034 4 0 0.0 0.0 0.00 1.04 0.00 94 1011.7
20260507055523 5 0 0.0 0.0 0.00 1.40 0.00 94 1011.8
20260507055021 5 0 0.0 0.0 0.00 1.40 0.00 94 1011.7
20260507054540 5 0 0.0 0.0 0.00 1.40 0.00 94 1011.7
20260507054021 5 0 0.0 0.0 0.00 1.40 0.00 93 1011.9
20260507053520 5 0 0.0 0.0 0.00 1.40 0.00 93 1011.9
20260507053039 5 0 0.0 0.0 0.00 1.40 0.00 93 1011.9
20260507052523 5 0 0.0 0.0 0.00 1.40 0.00 93 1011.9
20260507052021 5 0 0.0 0.0 0.00 1.40 0.00 93 1012.0
20260507051538 5 0 0.0 0.0 0.00 1.40 0.00 93 1011.9
20260507051024 5 0 0.0 0.0 0.00 1.40 0.00 93 1012.1
20260507050519 5 0 0.0 0.0 0.00 1.40 0.00 93 1012.0
20260507050041 5 0 0.0 0.0 0.00 1.40 0.00 93 1012.2
20260507045524 5 0 0.0 0.0 0.00 1.63 0.00 93 1012.1
20260507045024 5 0 0.0 0.0 0.00 1.63 0.00 93 1012.2
20260507044538 5 0 0.0 1.6 0.00 1.63 0.00 93 1012.2
20260507044020 5 0 0.0 3.2 0.00 1.63 0.00 93 1012.4
20260507043520 5 0 0.0 3.2 0.00 1.63 0.00 93 1012.3
20260507043054 5 297 1.6 3.2 0.00 1.63 0.00 93 1012.4
20260507042521 5 0 0.0 0.0 0.00 1.63 0.00 93 1012.4
20260507042020 5 0 0.0 0.0 0.00 1.63 0.00 93 1012.4
20260507041538 5 0 0.0 0.0 0.00 1.63 0.00 93 1012.3
20260507041020 5 0 0.0 0.0 0.00 1.63 0.00 93 1012.3
20260507040520 5 0 0.0 0.0 0.00 1.63 0.00 93 1012.3
20260507040035 5 0 0.0 3.2 0.00 1.63 0.00 93 1012.2
20260507035520 5 0 0.0 3.2 0.00 1.80 1.63 93 1012.3
20260507035024 5 297 0.0 3.2 0.00 1.80 1.63 93 1012.2
20260507034538 5 0 0.0 3.2 0.00 1.80 1.63 93 1012.4
20260507034020 5 297 0.0 3.2 0.00 1.80 1.63 93 1012.1
20260507033520 5 0 0.0 3.2 0.00 1.80 1.63 93 1012.1
20260507033038 5 297 0.0 3.2 0.00 1.80 1.63 93 1012.0
20260507032523 5 297 1.6 3.2 0.00 1.80 1.63 93 1011.9
20260507032021 5 297 1.6 3.2 0.00 1.80 1.63 93 1012.1
20260507031545 5 0 0.0 3.2 0.00 1.80 1.63 93 1012.1
20260507031020 5 0 0.0 3.2 0.00 1.80 1.63 93 1012.3
20260507030526 5 0 0.0 3.2 0.00 1.80 1.63 93 1012.3
20260507030036 5 0 0.0 3.2 0.00 1.80 1.63 93 1012.3
20260507025520 5 0 0.0 3.2 0.00 1.88 1.63 93 1012.3
20260507025021 5 0 0.0 3.2 0.00 1.88 1.63 93 1012.1
20260507024537 5 0 0.0 3.2 0.00 1.88 1.63 93 1012.3
20260507024021 5 0 0.0 1.6 0.00 1.88 1.63 93 1012.3
20260507023521 5 0 0.0 3.2 0.00 1.88 1.63 93 1012.1
20260507023037 5 297 0.0 3.2 0.00 1.88 1.63 93 1012.1
20260507022520 5 0 0.0 3.2 0.00 1.88 1.63 93 1012.1
20260507022023 5 297 0.0 3.2 0.00 1.88 1.63 93 1012.0
20260507021540 5 0 0.0 3.2 0.00 1.88 1.63 93 1012.2
20260507021020 5 297 0.0 4.8 0.00 1.88 1.63 93 1012.2
20260507020521 5 0 1.6 4.8 0.00 1.88 1.63 93 1012.2
20260507020048 5 297 1.6 4.8 0.00 1.88 1.63 93 1012.3
20260507015521 5 0 0.0 4.8 0.00 1.96 1.63 93 1012.3
20260507015021 5 297 0.0 3.2 0.00 1.96 1.63 93 1012.3
20260507014538 5 297 0.0 0.0 0.00 1.96 1.63 93 1012.3
20260507014021 5 0 0.0 3.2 0.00 1.96 1.63 93 1012.4
20260507013520 5 0 0.0 3.2 0.00 1.96 1.63 92 1012.4
20260507013038 5 0 0.0 3.2 0.00 1.96 1.63 92 1012.3
20260507012520 5 0 0.0 3.2 0.00 1.96 1.63 92 1012.3
20260507012021 5 0 0.0 3.2 0.00 1.96 1.63 92 1012.1
20260507011545 5 0 0.0 3.2 0.00 1.96 1.63 92 1012.1
20260507011020 5 0 0.0 3.2 0.00 1.96 1.63 93 1012.0
20260507010520 5 297 0.0 3.2 0.00 1.96 1.63 92 1012.0
20260507010038 5 0 0.0 3.2 0.00 1.96 1.63 92 1011.9
20260507005521 5 297 0.0 3.2 0.00 2.21 1.63 92 1011.9
20260507005023 5 0 0.0 3.2 0.00 2.21 1.63 92 1012.0
20260507004535 5 0 0.0 4.8 0.00 2.21 1.63 92 1011.9
20260507004023 5 297 0.0 4.8 0.00 2.21 1.63 92 1011.9
20260507003522 5 297 1.6 4.8 0.00 2.21 1.63 93 1011.8
20260507003037 5 0 1.6 4.8 0.00 2.21 1.63 92 1011.7
20260507002522 5 0 0.0 3.2 0.00 2.21 1.63 93 1011.7
20260507002021 5 0 0.0 4.8 0.00 2.21 1.63 93 1011.5
20260507001604 5 297 1.6 6.4 0.00 2.21 1.63 92 1011.5
20260507001024 5 281 3.2 6.4 0.00 2.21 1.63 92 1011.5
20260507000521 5 0 3.2 6.4 0.00 2.21 1.63 93 1011.5
20260507000042 5 298 1.6 6.4 0.00 2.21 1.63 93 1011.5
20260506235523 5 299 1.6 6.4 0.00 2.41 1.63 93 1011.4
20260506235020 5 309 1.6 6.4 0.00 2.41 1.63 93 1011.5
20260506234537 5 0 1.6 8.0 0.00 2.41 1.63 93 1011.4
20260506234023 5 290 4.8 9.7 0.00 2.41 1.63 93 1011.5
20260506233521 5 273 3.2 9.7 0.00 2.41 1.63 93 1011.5
20260506233037 5 304 3.2 8.0 0.00 2.41 1.63 93 1011.4
20260506232520 5 300 3.2 9.7 0.00 2.41 1.63 93 1011.3
20260506232021 5 275 3.2 9.7 0.00 2.41 1.63 93 1011.3
20260506231534 5 314 3.2 9.7 0.00 2.41 1.63 93 1011.2
20260506231025 5 315 3.2 9.7 0.00 2.41 1.63 93 1011.1
20260506230526 5 300 3.2 11.3 0.00 2.41 1.63 93 1011.1
20260506230052 5 302 1.6 11.3 0.00 2.41 1.63 93 1011.0
20260506225525 5 296 4.8 11.3 0.00 2.67 1.63 92 1011.1
20260506225021 5 275 3.2 9.7 0.00 2.67 1.63 92 1010.9
20260506224538 5 315 3.2 9.7 0.00 2.67 1.63 92 1010.8
20260506224021 5 308 3.2 8.0 0.00 2.67 1.63 92 1010.6
20260506223522 5 318 4.8 12.9 0.00 2.67 1.63 92 1010.6
20260506223037 5 313 4.8 16.1 0.00 2.67 1.63 92 1010.6
20260506222525 5 323 9.7 16.1 0.00 2.67 1.63 92 1010.6
20260506222021 5 309 8.0 17.7 0.00 2.67 1.63 92 1010.3
20260506221537 5 296 8.0 17.7 0.00 2.67 1.63 91 1010.2
20260506221021 6 280 8.0 16.1 0.00 2.67 1.63 91 1010.1
20260506220520 6 304 6.4 17.7 0.00 2.67 1.63 91 1010.1
20260506220036 6 269 4.8 17.7 0.00 2.67 1.63 91 1010.1
20260506215520 6 236 8.0 19.3 0.00 3.10 1.63 90 1010.0
20260506215020 6 279 8.0 19.3 0.00 3.10 1.63 89 1009.9
20260506214537 7 313 4.8 19.3 0.00 3.10 1.63 89 1009.8
20260506214023 7 275 8.0 20.9 0.00 3.10 1.63 88 1009.7
20260506213523 7 269 9.7 20.9 0.00 3.10 1.63 88 1009.7
20260506213035 8 273 6.4 14.5 0.00 3.10 1.63 87 1009.6
20260506212521 8 301 4.8 17.7 0.00 3.10 1.63 86 1009.3
20260506212021 8 326 8.0 24.1 0.00 3.10 1.63 84 1009.2
20260506211537 9 275 8.0 24.1 0.00 3.10 1.63 83 1009.1
20260506211021 9 217 9.7 24.1 0.00 3.10 1.63 82 1008.9
20260506210524 9 220 9.7 24.1 0.00 3.10 1.63 81 1008.9
20260506210050 9 214 6.4 22.5 0.00 3.10 1.63 81 1008.7
20260506205520 9 216 6.4 22.5 0.00 3.15 1.63 81 1008.7
20260506205020 9 227 3.2 12.9 0.00 3.15 1.63 83 1008.8
20260506204540 9 226 4.8 12.9 0.00 3.15 1.63 83 1008.8
20260506204020 9 221 4.8 12.9 0.00 3.15 1.63 84 1008.8
20260506203525 9 219 3.2 12.9 0.00 3.15 1.63 84 1008.8
20260506203038 9 195 3.2 8.0 0.00 3.15 1.63 85 1008.8
20260506202525 9 205 3.2 6.4 0.00 3.15 1.63 85 1008.8
20260506202020 9 205 3.2 6.4 0.00 3.15 1.63 85 1008.8
20260506201537 9 240 3.2 6.4 0.00 3.15 1.63 85 1008.9
20260506201024 9 0 0.0 1.6 0.00 3.15 1.63 86 1008.9
20260506200520 9 0 0.0 4.8 0.00 3.15 1.63 84 1008.9
20260506200040 9 308 0.0 4.8 0.00 3.15 1.63 84 1008.9
20260506195521 9 308 1.6 3.2 0.00 3.15 1.63 84 1008.9
20260506195021 9 0 0.0 3.2 0.00 3.15 1.63 84 1008.8
20260506194538 9 0 0.0 3.2 0.00 3.15 1.63 84 1008.8
20260506194021 9 0 0.0 3.2 0.00 3.15 1.63 85 1008.9
20260506193520 9 0 0.0 3.2 0.00 3.15 1.63 85 1008.9
20260506193043 9 0 0.0 3.2 0.00 3.15 1.63 84 1008.9
20260506192520 9 307 0.0 4.8 0.00 3.15 1.63 84 1008.9
20260506192020 9 308 1.6 4.8 0.00 3.15 1.63 84 1008.9
20260506191537 9 0 0.0 1.6 0.00 3.15 1.63 85 1008.9
20260506191021 8 0 0.0 0.0 0.00 3.15 1.63 86 1008.9
20260506190521 8 0 0.0 0.0 0.00 3.15 1.63 86 1008.9
20260506190035 8 0 0.0 3.2 0.00 3.15 1.63 87 1008.8
20260506185523 8 0 0.0 3.2 0.00 3.15 1.63 88 1008.8
20260506185020 8 0 0.0 4.8 0.00 3.15 1.63 89 1008.8
20260506184543 8 0 1.6 4.8 0.00 3.15 1.63 89 1008.8
20260506184020 8 86 1.6 4.8 0.00 3.15 1.63 90 1008.8
20260506183523 8 86 3.2 4.8 0.00 3.15 1.63 90 1008.8
20260506183038 8 86 0.0 4.8 0.00 3.15 1.63 90 1009.0
20260506182520 8 86 3.2 4.8 0.00 3.15 1.63 91 1009.0
20260506182020 8 86 1.6 3.2 0.00 3.15 1.63 90 1009.0
20260506181542 8 86 0.0 1.6 0.00 3.15 1.63 90 1009.1
20260506181025 8 0 0.0 1.6 0.00 3.15 1.63 91 1009.1
20260506180525 8 0 0.0 0.0 0.00 3.15 1.63 91 1009.1
20260506180038 8 0 0.0 0.0 0.00 3.15 1.63 91 1009.0
20260506175520 7 0 0.0 0.0 0.00 3.15 1.63 91 1009.0
20260506175020 7 0 0.0 0.0 0.00 3.15 1.63 91 1008.9
20260506174538 7 0 0.0 0.0 0.00 3.15 1.63 91 1008.9
20260506174022 7 0 0.0 0.0 0.00 3.15 1.63 92 1009.0
20260506173520 7 0 0.0 0.0 0.00 3.15 1.63 92 1008.9
20260506173043 7 0 0.0 0.0 0.00 3.15 1.63 92 1009.0
20260506172523 7 0 0.0 3.2 0.00 3.15 1.63 92 1009.1
20260506172021 7 0 0.0 3.2 0.00 3.15 1.63 92 1009.1
20260506171538 7 86 0.0 3.2 0.00 3.15 1.63 91 1009.1
20260506171023 7 86 3.2 3.2 0.00 3.15 1.63 91 1009.1
20260506170520 7 86 1.6 3.2 0.00 3.15 1.63 91 1009.1
20260506170046 7 86 1.6 3.2 0.00 3.15 1.63 91 1008.9
20260506165524 7 86 1.6 3.2 0.00 3.15 1.63 91 1008.9
20260506165021 7 86 1.6 3.2 0.00 3.15 1.63 90 1008.9
20260506164551 7 86 1.6 3.2 0.00 3.15 1.63 90 1008.9
20260506164020 7 0 0.0 0.0 0.00 3.15 1.63 89 1008.8
20260506163520 7 0 0.0 3.2 0.00 3.15 1.63 89 1008.7
20260506163041 7 0 0.0 3.2 0.00 3.15 1.63 89 1008.8
20260506162520 7 0 0.0 0.0 0.00 3.15 1.63 89 1008.7
20260506162020 7 0 0.0 3.2 0.00 3.15 1.63 89 1008.8
20260506161537 7 0 0.0 3.2 0.00 3.15 1.63 89 1008.7
20260506161023 7 86 1.6 4.8 0.00 3.15 1.63 90 1008.7
20260506160520 7 86 1.6 4.8 0.00 3.15 1.63 89 1008.6
20260506160050 7 86 1.6 4.8 0.00 3.15 1.63 90 1008.6
20260506155523 7 86 3.2 4.8 0.00 3.15 1.63 90 1008.7
20260506155024 7 86 0.0 4.8 0.00 3.15 1.63 91 1008.7
20260506154544 7 86 1.6 4.8 0.00 3.15 1.63 90 1008.6
20260506154023 7 86 3.2 6.4 0.00 3.15 1.63 91 1008.7
20260506153519 7 86 3.2 6.4 0.00 3.15 1.63 91 1008.6
20260506153037 7 93 3.2 6.4 0.00 3.15 1.63 92 1008.6
20260506152523 7 93 3.2 6.4 0.03 3.15 1.63 92 1008.4
20260506152021 7 93 1.6 6.4 0.03 3.15 1.63 93 1008.4
20260506151539 7 93 3.2 4.8 0.03 3.15 1.63 93 1008.5
20260506151020 7 93 3.2 6.4 0.03 3.15 1.63 92 1008.6
20260506150521 7 93 3.2 8.0 0.03 3.15 1.63 93 1008.7
20260506150043 7 93 4.8 8.0 0.03 3.15 1.63 93 1008.4
20260506145521 7 86 3.2 4.8 0.03 3.15 1.63 93 1008.3
20260506145021 7 86 1.6 4.8 0.03 3.15 1.63 93 1008.3
20260506144537 7 86 1.6 4.8 0.03 3.15 1.63 93 1008.2
20260506144025 6 86 3.2 4.8 0.03 3.15 1.63 93 1008.3
20260506143526 6 86 1.6 4.8 0.03 3.15 1.63 93 1008.3
20260506143039 6 86 1.6 4.8 0.03 3.15 1.63 93 1008.3
20260506142522 6 86 1.6 6.4 0.00 3.12 1.60 93 1008.3
20260506142021 6 86 1.6 6.4 0.00 3.12 1.60 93 1008.3
20260506141543 6 86 3.2 6.4 0.00 3.12 1.60 93 1008.2
20260506141023 6 69 3.2 6.4 0.00 3.12 1.60 93 1008.1
20260506140523 6 60 3.2 9.7 0.00 3.12 1.60 93 1008.1
20260506140038 6 86 1.6 9.7 0.00 3.12 1.60 93 1008.1
20260506135520 6 111 4.8 9.7 0.00 3.12 1.60 94 1008.0
20260506135021 6 111 3.2 9.7 0.03 3.12 1.60 94 1008.1